Weather History for Nakika, MS

Change the Weather History Date:

Tuesday, March 4, 2014

  Actual Average Record
Temperature  
Mean Temperature 56 °F -  
Max Temperature 59 °F - - ()
Min Temperature 53 °F - - ()
Degree Days  
Heating Degree Days 9    
Growing Degree Days 6 (Base 50)    
Moisture  
Dew Point 50 °F    
Average Humidity 83    
Maximum Humidity 100    
Minimum Humidity 77    
Precipitation  
Precipitation 0.07 in - - ()
Sea Level Pressure  
Sea Level Pressure 30.07 in    
Wind  
Wind Speed 13 mph (NE)    
Max Wind Speed 21 mph    
Max Gust Speed 24 mph    
Visibility 9 miles    
Events      
T = Trace of Precipitation, MM = Missing Value Source: NWS Daily Summary

Daily Weather History Graph

Daily Weather History Graph

Search for Another Location

Airport:

Trip Planner

Search our weather history database for the weather conditions in past years. The results will help you decide how hot, cold, wet, or windy it might be!

Date:

Astronomy

Mar. 04, 2014 Rise Set
Actual Time 6:14 AM CST 5:55 PM CST
Civil Twilight 5:51 AM CST 6:18 PM CST
Nautical Twilight 5:23 AM CST 6:46 PM CST
Astronomical Twilight 4:56 AM CST 7:13 PM CST
Moon 8:21 AM CST (3/4) 9:39 PM CST (3/4)
Length of Visible Light 12h 27m
Length of Day
11h 40m
Waxing Crescent, 15% of the Moon is Illuminated
Mar 4
Waxing Crescent
Mar 8
First Quarter
Mar 16
Full
Mar 23
Last Quarter
Mar 30
New

Hourly Weather History & Observations

Time (CST) Temp. Dew Point Humidity Pressure Visibility Wind Dir Wind Speed Gust Speed Precip Events Conditions
12:15 AM 55.4 °F 50.0 °F 82% 30.09 in 10.0 mi North 15.0 mph 20.7 mph N/A   Overcast
12:35 AM 55.4 °F 50.0 °F 82% 30.09 in 10.0 mi North 11.5 mph 21.9 mph N/A   Overcast
12:55 AM 55.4 °F 50.0 °F 82% 30.09 in 10.0 mi North 15.0 mph - N/A   Overcast
1:15 AM 55.4 °F 48.2 °F 77% 30.09 in 10.0 mi North 13.8 mph - N/A   Overcast
1:35 AM 55.4 °F 48.2 °F 77% 30.08 in 10.0 mi NNE 15.0 mph - N/A   Overcast
2:00 AM 53.6 °F 48.2 °F 82% 30.07 in 10.0 mi NNE 10.4 mph 19.6 mph N/A   Overcast
2:15 AM 53.6 °F 48.2 °F 82% 30.07 in 10.0 mi NNE 12.7 mph - N/A   Overcast
2:35 AM 53.6 °F 48.2 °F 82% 30.08 in 10.0 mi NNE 10.4 mph - N/A   Overcast
3:00 AM 53.6 °F 48.2 °F 82% 30.08 in 10.0 mi NE 9.2 mph 15.0 mph N/A   Overcast
3:15 AM 53.6 °F 48.2 °F 82% 30.07 in 10.0 mi NNE 12.7 mph - N/A   Overcast
3:40 AM 53.6 °F 48.2 °F 82% 30.08 in 10.0 mi NNE 10.4 mph - N/A   Overcast
3:55 AM 53.6 °F 48.2 °F 82% 30.07 in 10.0 mi NNE 12.7 mph - N/A   Overcast
4:15 AM 53.6 °F 48.2 °F 82% 30.07 in 10.0 mi NNE 12.7 mph - N/A   Overcast
4:35 AM 53.6 °F 48.2 °F 82% 30.06 in 10.0 mi NNE 13.8 mph - N/A   Overcast
4:55 AM 53.6 °F 48.2 °F 82% 30.06 in 10.0 mi NNE 12.7 mph - N/A   Overcast
5:15 AM 53.6 °F 48.2 °F 82% 30.07 in 10.0 mi NNE 12.7 mph - N/A   Overcast
5:35 AM 53.6 °F 48.2 °F 82% 30.10 in 10.0 mi NNE 11.5 mph - N/A   Overcast
5:55 AM 53.6 °F 48.2 °F 82% 30.10 in 10.0 mi NNE 12.7 mph - N/A   Overcast
6:15 AM 53.6 °F 48.2 °F 82% 30.09 in 10.0 mi NNE 13.8 mph - N/A   Overcast
6:40 AM 53.6 °F 48.2 °F 82% 30.08 in 10.0 mi NNE 11.5 mph 18.4 mph N/A   Overcast
6:55 AM 53.6 °F 48.2 °F 82% 30.08 in 10.0 mi NNE 11.5 mph 18.4 mph N/A   Overcast
7:20 AM 53.6 °F 48.2 °F 82% 30.09 in 10.0 mi NE 11.5 mph - N/A   Overcast
7:35 AM 53.6 °F 48.2 °F 82% 30.10 in - NE 9.2 mph 17.3 mph N/A   Overcast
8:00 AM 53.6 °F 48.2 °F 82% 30.10 in 10.0 mi NE 8.1 mph 17.3 mph N/A   Overcast
8:15 AM 53.6 °F 48.2 °F 82% 30.11 in 9.0 mi NE 8.1 mph 15.0 mph N/A   Overcast
8:40 AM 53.6 °F 50.0 °F 88% 30.11 in 10.0 mi NE 9.2 mph 15.0 mph N/A   Overcast
8:55 AM 53.6 °F 48.2 °F 82% 30.13 in 10.0 mi Variable 6.9 mph 15.0 mph N/A   Overcast
9:20 AM 53.6 °F 50.0 °F 88% 30.12 in 9.0 mi NE 6.9 mph 12.7 mph N/A   Overcast
9:35 AM 53.6 °F 50.0 °F 88% 30.12 in 9.0 mi ENE 9.2 mph - N/A   Overcast
10:00 AM 55.4 °F 50.0 °F 82% 30.11 in 9.0 mi NE 9.2 mph - N/A   Overcast
10:15 AM 55.4 °F 50.0 °F 82% 30.11 in 9.0 mi NE 6.9 mph 13.8 mph N/A   Overcast
10:40 AM 55.4 °F 50.0 °F 82% 30.10 in 10.0 mi NE 10.4 mph 18.4 mph N/A   Overcast
10:55 AM 55.4 °F 50.0 °F 82% 30.12 in 9.0 mi NNE 12.7 mph - N/A   Overcast
11:15 AM 55.4 °F 50.0 °F 82% 30.11 in 10.0 mi NNE 13.8 mph - N/A   Overcast
11:40 AM 55.4 °F 50.0 °F 82% 30.11 in 10.0 mi NE 10.4 mph - N/A   Overcast
11:55 AM 55.4 °F 50.0 °F 82% 30.09 in 10.0 mi NNE 17.3 mph - N/A   Overcast
12:15 PM 55.4 °F 50.0 °F 82% 30.10 in 10.0 mi NE 11.5 mph 21.9 mph N/A   Overcast
12:35 PM 57.2 °F 50.0 °F 77% 30.08 in 10.0 mi NNE 17.3 mph - N/A   Overcast
1:00 PM 55.4 °F 50.0 °F 82% 30.08 in 10.0 mi NNE 18.4 mph - N/A   Overcast
1:15 PM 55.4 °F 50.0 °F 82% 30.08 in 10.0 mi NNE 17.3 mph - N/A   Overcast
1:40 PM 55.4 °F 50.0 °F 82% 30.06 in 10.0 mi NNE 13.8 mph 20.7 mph N/A   Overcast
1:55 PM 55.4 °F 50.0 °F 82% 30.06 in 10.0 mi NNE 16.1 mph 21.9 mph N/A   Overcast
2:20 PM 55.4 °F 50.0 °F 82% 30.06 in 10.0 mi NNE 15.0 mph - N/A   Overcast
2:35 PM 55.4 °F 50.0 °F 82% 30.05 in 10.0 mi NNE 15.0 mph - N/A   Overcast
3:00 PM 55.4 °F 50.0 °F 82% 30.03 in 10.0 mi NNE 17.3 mph - N/A   Overcast
3:15 PM 55.4 °F 50.0 °F 82% 30.04 in 10.0 mi NNE 16.1 mph 23.0 mph N/A   Overcast
3:40 PM 55.4 °F 50.0 °F 82% 30.02 in 10.0 mi NNE 20.7 mph - N/A   Overcast
3:55 PM 55.4 °F 50.0 °F 82% 30.02 in 10.0 mi NNE 20.7 mph - N/A   Overcast
4:20 PM 55.4 °F 50.0 °F 82% 30.03 in 10.0 mi NE 13.8 mph 21.9 mph N/A   Overcast
4:35 PM 55.4 °F 50.0 °F 82% 30.01 in 10.0 mi NE 12.7 mph 24.2 mph N/A   Overcast
5:00 PM 55.4 °F 50.0 °F 82% 30.01 in 10.0 mi ENE 16.1 mph 24.2 mph N/A   Overcast
5:15 PM 55.4 °F 50.0 °F 82% 30.02 in 10.0 mi ENE 12.7 mph 21.9 mph N/A   Overcast
5:40 PM 55.4 °F 50.0 °F 82% 30.02 in 10.0 mi NE 11.5 mph 20.7 mph N/A   Overcast
5:55 PM 55.4 °F 50.0 °F 82% 30.03 in 10.0 mi ENE 15.0 mph 23.0 mph N/A   Overcast
6:20 PM 55.4 °F 50.0 °F 82% 30.03 in 10.0 mi ENE 19.6 mph - N/A   Overcast
6:35 PM 57.2 °F 50.0 °F 77% 30.03 in 10.0 mi ENE 16.1 mph 23.0 mph N/A   Overcast
7:00 PM 57.2 °F 51.8 °F 82% 30.03 in 10.0 mi ENE 16.1 mph - N/A   Overcast
7:20 PM 57.2 °F 51.8 °F 82% 30.03 in 10.0 mi ENE 16.1 mph - N/A   Overcast
7:35 PM 57.2 °F 51.8 °F 82% 30.03 in 10.0 mi ENE 19.6 mph - N/A   Overcast
8:00 PM 57.2 °F 51.8 °F 82% 30.03 in 10.0 mi ENE 17.3 mph 24.2 mph N/A   Overcast
8:15 PM 59.0 °F 51.8 °F 77% 30.04 in 10.0 mi ENE 10.4 mph 20.7 mph N/A   Overcast
8:40 PM 57.2 °F 51.8 °F 82% 30.03 in 10.0 mi ENE 13.8 mph 20.7 mph N/A   Overcast
9:00 PM 57.2 °F 51.8 °F 82% 30.04 in 9.0 mi ENE 17.3 mph - N/A   Overcast
9:15 PM 57.2 °F 51.8 °F 82% 30.04 in 7.0 mi NE 10.4 mph 19.6 mph N/A   Overcast
9:40 PM 57.2 °F 53.6 °F 88% 30.06 in 3.0 mi ENE 10.4 mph - N/A   Overcast
9:55 PM 55.4 °F 53.6 °F 94% 30.06 in 3.0 mi NNE 16.1 mph - N/A   Overcast
10:20 PM 55.4 °F 53.6 °F 94% 30.06 in 4.0 mi NNE 18.4 mph - N/A   Overcast
10:35 PM 55.4 °F 53.6 °F 94% 30.06 in 3.0 mi NE 12.7 mph 20.7 mph N/A   Overcast
11:00 PM 55.4 °F 53.6 °F 94% 30.05 in - ENE 10.4 mph 19.6 mph 0.07 in   Unknown
11:15 PM 55.4 °F 53.6 °F 94% 30.06 in 2.5 mi ENE 13.8 mph - N/A   Overcast
11:40 PM 55.4 °F 53.6 °F 94% 30.05 in 2.0 mi ENE 9.2 mph 16.1 mph N/A   Overcast
11:55 PM 55.4 °F 55.4 °F 100% 30.04 in 2.5 mi NE 10.4 mph 18.4 mph N/A   Overcast